Flag for U.S.A. Weather past 2 weeks in Cambridge, Massachusetts, U.S.A.

Now
27 °F

Clear.


Feels Like: 17 °F
Forecast: 4 / 29 °F
Wind: 10 mph from West

Location: Logan International Airport

Current Time: Feb 28, 2015 at 10:31:54 PM

Latest Report: Feb 28, 2015 at 9:54 PM


Visibility: 10 mi

Pressure: 30.71 "Hg

Humidity: 34%

Dew point: 2 °F

Location of CambridgeLocation

Historic Weather in Cambridge — Graph

°F

Cambridge temperature yesterday

Maximum temperature yesterday: 27 °F (at 3:54 PM)
Minimum temperature yesterday: 15 °F (at 5:54 AM)
Average temperature yesterday: 21 °F

Past Weeks' High & Low Weather Summary

 TemperatureHumidityPressure
High37 °F (Feb 22, 2:00 PM)100% (Feb 22, 1:54 AM)30.74 "Hg (Feb 22, 1:54 AM)
Low-3 °F (Feb 16, 1:54 AM)27% (Feb 23, 1:54 PM)29.31 "Hg (Feb 15, 3:54 AM)
Average19 °F58%30.02 "Hg
* Reported Feb 13 8:54 PM — Feb 28 8:54 PM, Cambridge, Weather by CustomWeather, © 2015

Note: Actual official high and low records may vary slightly from our data, if they occured in-between our weather recording intervals... More about our weather records

Advertising

Cambridge weather history for previous 24 hours

 ConditionsComfort  
Time TempWeatherWind HumidityBarometerVisibility
8:54 PM
Sat, Feb 28
27 °FClear.8 mph35%30.70 "Hg10 mi
7:54 PM26 °FClear.8 mph38%30.70 "Hg10 mi
6:54 PM27 °FClear.8 mph35%30.69 "Hg10 mi
5:54 PM29 °FPassing clouds.8 mph28%30.68 "Hg10 mi
4:54 PM30 °FPassing clouds.7 mph27%30.67 "Hg10 mi
3:54 PM30 °FSunny.6 mph30%30.68 "Hg10 mi
2:54 PM30 °FSunny.8 mph30%30.68 "Hg10 mi
1:54 PM29 °FPassing clouds.5 mph30%30.69 "Hg10 mi
12:54 PM27 °FPassing clouds.8 mph31%30.71 "Hg10 mi
11:54 AM25 °FSunny.5 mph35%30.73 "Hg10 mi
10:54 AM22 °FSunny.7 mph40%30.74 "Hg10 mi
9:54 AM19 °FSunny.9 mph43%30.74 "Hg10 mi
8:54 AM16 °FSunny.9 mph47%30.74 "Hg10 mi
7:54 AM13 °FSunny.12 mph54%30.72 "Hg10 mi
6:54 AM12 °FSunny.10 mph56%30.71 "Hg10 mi
5:54 AM13 °FClear.9 mph54%30.67 "Hg10 mi
4:54 AM13 °FClear.10 mph54%30.64 "Hg10 mi
3:54 AM14 °FClear.12 mph51%30.62 "Hg10 mi
2:54 AM15 °FClear.12 mph51%30.60 "Hg10 mi
1:54 AM16 °FClear.10 mph49%30.59 "Hg10 mi
12:54 AM17 °FClear.12 mph47%30.56 "Hg10 mi
11:54 PM
Fri, Feb 27
18 °FClear.12 mph41%30.54 "Hg10 mi
10:54 PM20 °FClear.9 mph36%30.52 "Hg10 mi
Weather by CustomWeather, © 2015

See weather overviewHow to use our weather pages